Theta_e
298 299 300 304 307 308 308 308 308 309 308 305 307 304 302 301 300 299 299 302 301 301 301 301 301 301 301 300 300 299 299 299 299 296 297 297 298 298 298 298 298 297 297
295 298 298 300 304 306 307 308 307 307 307 306 305 303 303 301 300 299 299 302 301 301 301 301 301 300 300 300 299 299 298 297 297 296 296 297 297 297 297 297 297 296 296
292 295 298 298 300 303 305 306 306 306 306 305 304 303 302 301 300 299 300 301 301 300 300 300 300 300 300 299 298 298 297 296 296 295 295 295 295 296 297 297 297 297 296
290 292 295 298 297 299 301 304 305 305 305 304 304 303 302 300 299 299 299 301 301 301 300 300 300 300 299 298 297 296 296 295 295 294 294 294 294 295 296 297 297 297 296
289 290 292 295 297 297 298 301 303 304 304 304 303 303 302 300 299 298 299 301 300 300 300 299 299 298 297 296 295 295 295 294 294 294 293 293 294 294 295 296 297 297 296
288 289 290 292 295 297 297 298 301 302 302 303 303 302 301 300 299 298 298 300 300 300 300 299 298 297 296 295 294 294 294 294 294 293 293 293 293 294 294 294 295 297 297
287 287 289 291 293 296 297 296 299 301 301 302 303 302 301 300 299 298 298 299 299 299 299 298 297 295 294 293 293 293 293 294 294 293 293 293 293 293 293 293 294 296 297
286 287 287 289 291 294 296 296 297 299 300 301 301 301 300 300 298 298 298 298 299 298 298 298 296 294 293 293 293 293 293 293 293 293 293 293 292 292 292 292 293 294 295
286 286 287 288 290 291 295 295 296 297 299 300 300 300 300 300 298 297 297 297 298 298 297 297 294 292 292 292 292 293 293 293 292 292 292 292 291 291 291 292 292 293 294
286 286 286 287 288 290 293 294 294 295 297 298 299 299 300 299 298 297 297 297 297 297 296 295 293 292 291 292 292 292 292 292 292 292 292 291 291 291 291 291 291 292 294
285 286 286 287 287 289 291 294 293 293 294 296 298 298 299 299 297 297 297 296 297 297 295 294 293 292 291 291 292 292 291 291 291 292 291 291 290 290 290 290 290 291 293
286 286 286 286 287 288 290 293 291 292 292 293 296 297 298 299 297 296 296 296 296 296 294 293 292 291 291 291 291 291 291 291 291 291 291 290 290 290 290 290 290 290 293
286 286 286 286 287 288 289 292 290 292 291 292 294 296 298 298 297 296 296 296 295 295 293 291 290 290 289 290 290 290 291 290 291 291 291 290 289 290 290 289 289 290 292
286 286 286 286 286 287 289 291 290 291 291 291 292 294 296 298 298 296 295 295 295 294 291 289 289 289 288 289 289 290 290 290 290 290 290 290 290 290 289 289 289 289 291
285 285 285 285 286 287 288 289 289 291 291 291 292 293 295 298 298 297 297 296 295 294 291 288 288 288 288 288 289 290 290 290 290 290 291 290 290 290 289 289 289 289 290
285 285 285 285 286 287 287 289 290 291 291 291 292 293 295 297 299 297 296 296 295 293 290 289 289 289 289 289 290 290 290 290 290 290 290 290 290 290 289 289 288 288 289
285 285 285 285 286 286 287 287 288 290 291 291 291 292 294 296 298 297 296 296 295 293 290 289 289 290 290 290 290 291 291 291 290 290 290 290 289 290 290 290 289 288 287
284 284 284 285 286 286 286 286 288 288 289 290 291 291 291 295 297 296 296 295 294 293 291 290 290 290 290 290 291 291 290 290 289 289 289 289 290 290 290 291 289 287 286
283 284 284 285 285 285 285 285 287 288 289 290 291 291 291 293 295 295 295 295 295 294 293 291 291 291 290 292 290 290 290 290 289 289 289 289 290 290 291 290 288 287 286
283 283 284 284 284 284 284 285 286 287 288 289 290 291 291 292 292 293 293 294 294 295 295 297 295 292 297 292 289 289 289 290 289 289 289 289 289 289 290 290 289 288 287
282 282 283 283 283 283 284 285 286 287 288 289 290 291 293 294 293 294 294 294 294 295 295 297 296 299 298 291 290 289 289 289 291 290 289 289 288 289 290 289 288 287 286
280 281 281 282 282 283 285 286 286 287 288 289 289 290 292 292 293 293 293 294 295 295 295 296 296 298 293 293 291 290 290 290 291 290 290 289 288 288 288 289 289 287 286
279 280 281 281 281 283 285 286 287 287 288 288 289 289 289 291 292 292 293 294 294 295 294 295 295 294 294 295 292 291 291 291 292 290 289 288 289 287 288 289 288 287 286
279 279 279 280 281 283 284 285 286 287 287 287 288 288 289 289 290 290 291 291 291 291 291 292 292 292 292 292 293 293 293 293 293 291 289 287 289 287 287 288 287 286 285
277 278 279 280 281 282 283 283 284 284 285 285 286 287 287 288 288 288 288 288 289 289 289 289 289 290 290 290 290 290 291 291 291 290 289 289 289 287 286 287 286 284 284
277 278 279 279 280 281 281 282 282 283 283 283 284 284 284 285 285 285 286 286 286 287 287 287 287 287 287 287 287 287 287 287 287 287 288 288 288 286 286 286 284 284 285
Wind_Speed
18 15 12 14 17 20 22 21 22 24 25 26 28 26 28 26 23 21 19 18 16 15 14 15 16 18 18 17 16 14 11 10 10 8 4 2 5 7 9 10 9 9 10
20 18 16 13 16 18 20 21 21 23 24 25 28 29 30 27 24 22 19 16 15 14 13 15 17 17 18 16 14 12 10 8 7 6 5 4 5 6 7 8 7 8 8
21 19 17 16 15 19 21 21 22 22 23 25 27 29 30 28 25 22 19 17 14 12 12 13 15 16 16 14 13 12 11 9 8 5 6 4 3 5 5 5 6 6 7
23 21 19 18 17 18 21 23 23 22 23 24 26 27 29 28 26 23 21 19 15 13 12 12 13 13 13 13 12 11 10 8 7 6 5 4 3 3 3 3 3 4 4
26 25 23 21 19 19 19 23 25 26 23 23 25 27 28 29 27 25 23 21 18 16 14 13 13 13 13 12 10 9 9 7 6 6 5 3 2 3 2 3 1 1 1
26 27 26 24 23 21 19 21 25 27 24 24 25 27 28 30 29 26 24 23 21 19 17 15 15 14 14 12 11 10 8 7 6 5 4 3 2 3 4 4 4 1 2
26 27 28 26 25 24 21 20 24 26 26 25 27 28 29 30 30 28 26 24 23 21 20 18 17 16 15 14 12 11 10 8 7 6 4 3 2 2 3 4 5 4 2
25 27 28 28 27 26 24 20 22 26 28 27 28 29 30 31 31 30 28 26 25 23 22 20 18 18 17 15 14 12 11 10 8 7 5 3 2 2 3 4 4 4 4
25 27 28 30 30 29 27 23 20 26 29 31 29 30 32 33 32 31 30 28 28 25 23 23 20 19 18 17 15 12 12 11 9 7 5 4 2 1 2 2 3 4 4
26 27 28 29 31 31 29 26 23 23 29 32 32 33 33 34 33 33 32 30 29 27 26 25 25 22 20 18 15 14 12 11 9 8 7 5 4 2 1 2 3 4 4
27 29 29 29 32 32 30 27 25 23 26 31 34 35 35 36 34 35 34 31 30 30 29 28 26 24 22 19 17 15 13 12 11 9 8 7 5 3 0 1 2 3 3
28 30 30 30 31 32 31 29 25 24 25 31 33 37 37 37 35 36 35 32 31 30 29 27 25 24 22 21 19 17 16 14 13 11 9 8 6 4 2 1 1 1 2
29 33 33 33 33 32 31 29 25 26 27 31 35 38 39 38 37 37 36 34 32 31 28 24 24 24 23 23 21 19 17 15 14 12 10 8 7 6 4 2 2 1 1
31 34 35 35 35 34 30 28 25 28 29 33 36 38 39 39 39 40 39 36 33 32 29 27 26 26 25 23 23 22 19 17 14 12 12 11 9 7 5 4 3 2 1
33 35 36 37 36 37 32 27 26 29 31 34 36 38 40 42 44 41 40 40 37 36 33 32 31 32 31 29 27 24 21 19 18 16 14 12 11 9 7 5 4 3 3
35 37 37 38 38 37 34 29 26 27 28 29 31 32 36 36 37 40 40 39 37 37 36 38 37 35 34 31 29 26 24 21 19 17 16 14 12 10 9 7 6 5 5
37 38 39 39 39 38 32 26 26 25 24 27 27 28 31 35 39 39 39 37 36 38 39 39 37 36 33 31 29 26 23 20 20 19 17 15 14 13 11 9 7 7 6
38 38 38 38 39 37 32 26 25 25 26 29 29 28 30 31 34 33 35 36 40 39 39 39 38 35 32 30 28 27 24 23 22 20 19 19 17 15 13 11 10 8 8
38 38 36 37 37 34 30 25 25 25 27 28 28 29 30 28 30 30 33 40 44 42 41 40 37 33 31 27 28 27 25 25 23 22 22 21 20 18 16 15 13 12 10
37 34 34 36 34 31 27 26 26 26 27 29 29 32 34 31 34 35 37 38 41 42 42 39 34 31 34 32 30 28 28 27 26 25 24 23 22 20 18 16 15 13 11
32 31 31 29 30 28 24 25 24 26 27 28 28 31 34 38 38 39 40 40 39 41 43 39 38 34 32 32 30 30 30 30 28 27 25 25 24 23 20 19 16 15 15
28 27 24 25 24 23 22 21 22 24 26 27 26 27 31 36 38 38 39 39 40 41 41 40 40 36 33 33 30 30 31 32 30 29 28 27 25 25 23 21 20 20 19
21 20 20 19 20 20 19 19 22 24 25 25 27 31 34 35 35 35 37 36 35 34 35 35 32 31 32 31 28 28 29 30 29 28 29 29 28 28 26 24 23 22 20
15 15 16 17 18 17 18 20 21 23 25 27 28 29 30 30 30 30 31 30 29 27 27 27 27 27 27 27 27 28 28 28 30 30 30 31 32 30 28 26 24 22 20
10 12 13 15 14 16 17 19 22 24 25 26 27 27 27 26 25 25 24 24 24 24 24 24 23 23 22 22 22 23 25 26 28 30 32 32 32 29 28 27 25 24 23
9 11 13 15 18 19 22 24 25 25 26 26 27 26 26 25 24 23 22 21 21 22 23 23 22 20 20 19 18 17 18 18 20 22 24 26 29 31 30 27 26 24 24
Wind_Direction
353 343 308 278 264 256 253 254 262 267 258 248 247 248 248 245 246 248 253 258 260 254 243 231 219 212 205 202 200 197 187 186 199 183 167 102 57 46 40 38 37 31 30
347 343 333 300 271 258 250 251 253 259 260 251 246 244 242 241 242 244 249 255 255 248 237 223 211 203 199 197 196 194 185 178 182 163 142 103 72 59 48 45 43 39 32
344 340 333 322 286 264 257 248 249 251 256 254 247 243 240 237 238 240 243 243 245 237 232 221 210 203 197 192 190 186 182 178 172 165 137 114 73 56 46 41 42 39 37
335 335 332 322 311 280 259 251 244 243 250 252 248 242 240 236 235 236 237 236 233 224 216 211 208 202 197 192 186 179 174 167 158 147 130 118 87 69 50 27 43 45 44
331 330 328 323 313 302 274 250 246 240 242 246 246 242 239 235 233 232 232 230 229 223 218 213 206 201 196 191 187 181 178 171 155 141 132 123 97 72 49 36 37 71 75
330 329 327 323 317 309 292 259 242 241 240 237 242 240 238 235 232 230 229 229 227 225 224 217 209 202 196 191 188 187 185 181 166 153 140 132 85 46 28 18 20 359 328
326 328 327 325 319 312 301 274 246 240 239 238 234 239 236 234 232 230 228 226 227 227 223 219 213 203 196 193 190 188 189 188 188 178 163 147 102 47 21 18 17 20 28
321 323 324 325 322 313 308 291 258 238 237 237 234 234 236 232 230 229 228 225 225 224 223 220 214 208 203 201 199 195 194 193 190 184 179 169 141 70 29 18 16 15 8
318 318 321 325 324 317 308 300 276 245 236 236 234 232 233 231 229 227 226 224 224 222 219 216 211 208 206 206 203 197 195 194 190 185 181 177 162 104 33 15 20 12 6
312 316 318 320 320 318 308 303 285 259 240 235 236 233 231 232 230 227 226 223 223 219 217 214 211 208 207 205 202 198 194 194 191 187 188 184 173 163 34 34 24 20 14
309 311 312 315 317 316 309 301 286 271 249 236 235 233 231 230 229 227 226 224 223 220 218 215 211 208 206 201 199 196 193 194 193 190 188 182 178 181 182 44 32 31 29
311 310 309 308 313 315 308 298 284 268 255 242 235 234 230 227 225 225 225 223 223 221 221 217 213 209 205 202 200 199 199 196 194 195 196 195 188 193 199 182 47 39 33
304 307 309 306 310 312 305 295 281 265 256 247 238 234 230 224 221 221 221 221 220 218 216 217 213 210 205 204 202 203 202 200 199 200 200 200 197 204 202 197 197 189 90
298 301 304 304 306 308 302 290 275 261 257 250 242 236 230 223 218 217 217 217 215 214 210 208 209 209 208 207 206 205 203 203 200 200 203 206 207 208 203 200 202 193 167
291 295 299 300 301 304 298 287 272 259 256 253 248 240 232 222 215 215 215 214 210 210 206 205 205 206 207 206 207 207 206 207 205 207 208 208 212 213 210 206 203 194 184
288 292 296 296 296 299 294 286 270 257 257 255 252 246 237 229 219 216 217 219 216 211 205 208 209 211 210 208 209 209 209 208 208 210 209 210 213 216 215 211 207 197 184
284 288 290 291 291 294 287 276 270 260 256 249 244 241 233 224 217 216 219 218 217 213 211 212 214 215 214 213 212 214 213 211 212 213 215 214 216 219 217 214 210 203 200
282 283 284 285 288 288 279 269 260 256 258 247 234 231 230 222 215 215 216 217 216 215 215 215 218 217 217 216 214 214 211 210 213 216 215 216 218 219 220 216 212 208 205
278 278 280 282 283 280 270 261 252 251 252 249 238 222 220 214 205 206 212 216 215 213 209 213 216 218 217 221 219 216 215 216 216 219 219 221 221 219 217 211 209 212 208
273 275 278 279 278 270 261 254 247 244 246 243 236 223 211 200 200 200 206 210 213 214 209 211 212 213 213 220 221 217 216 215 216 218 220 222 224 223 221 219 217 216 214
271 273 275 272 267 261 252 248 240 236 238 236 232 225 213 203 200 200 202 206 208 211 210 213 211 209 214 223 221 220 219 219 219 220 220 221 222 223 221 219 215 212 212
270 271 268 263 260 253 245 240 233 232 230 227 220 217 207 202 202 202 204 205 206 210 213 215 217 215 215 216 220 222 221 221 221 220 219 219 223 223 221 222 219 215 215
263 262 259 258 250 240 237 230 223 221 217 212 208 198 193 198 201 203 206 209 208 211 214 217 218 214 216 218 216 217 220 222 225 224 222 216 219 221 218 225 223 218 216
250 250 247 239 226 216 207 202 198 198 196 192 188 185 187 190 191 194 199 203 205 206 206 207 209 212 214 215 218 223 225 225 224 219 216 214 216 215 219 221 221 217 214
236 227 217 206 194 182 177 171 168 167 168 169 169 170 171 173 175 178 183 187 192 196 198 199 202 205 209 213 216 218 221 222 223 220 216 219 216 209 215 217 217 211 210
189 180 171 161 151 146 145 142 141 142 142 143 145 147 149 152 154 156 159 164 170 176 181 184 187 190 192 193 196 200 203 207 209 211 212 213 211 205 206 210 211 210 213